TimeAKDT,TemperatureF,Dew PointF,Humidity,Sea Level PressureIn,VisibilityMPH,Wind Direction,Wind SpeedMPH,Gust SpeedMPH,PrecipitationIn,Events,Conditions,WindDirDegrees,DateUTC
12:16 AM,46.4,44.6,93,30.41,1.5,NE,4.6,-,N/A,,Overcast,40,2012-10-06 08:16:00
12:36 AM,46.4,46.4,100,30.41,0.2,ENE,4.6,-,N/A,,Overcast,60,2012-10-06 08:36:00
12:56 AM,46.4,44.6,93,30.41,0.2,ENE,3.5,-,N/A,,Overcast,70,2012-10-06 08:56:00
1:36 AM,46.4,44.6,93,30.40,0.2,East,4.6,-,N/A,,Overcast,80,2012-10-06 09:36:00
1:56 AM,46.4,44.6,93,30.41,0.2,Calm,Calm,-,N/A,,Overcast,0,2012-10-06 09:56:00
2:16 AM,46.4,46.4,100,30.41,0.2,East,4.6,-,N/A,,Overcast,90,2012-10-06 10:16:00
2:36 AM,46.4,44.6,93,30.40,0.2,East,3.5,-,N/A,,Overcast,90,2012-10-06 10:36:00
2:56 AM,46.4,44.6,93,30.40,0.2,East,3.5,-,N/A,,Overcast,80,2012-10-06 10:56:00
3:16 AM,46.4,44.6,93,30.40,0.2,East,3.5,-,N/A,,Overcast,80,2012-10-06 11:16:00
3:56 AM,46.4,46.4,100,30.39,0.2,East,3.5,-,N/A,,Overcast,80,2012-10-06 11:56:00
4:16 AM,46.4,46.4,100,30.39,0.2,ESE,3.5,-,N/A,,Overcast,110,2012-10-06 12:16:00
4:36 AM,46.4,46.4,100,30.39,0.5,East,3.5,-,N/A,,Overcast,80,2012-10-06 12:36:00
4:56 AM,46.4,46.4,100,30.39,0.5,Calm,Calm,-,N/A,,Overcast,0,2012-10-06 12:56:00
5:16 AM,46.4,46.4,100,30.39,0.5,Calm,Calm,-,N/A,,Overcast,0,2012-10-06 13:16:00
5:36 AM,46.4,46.4,100,30.39,0.5,East,3.5,-,N/A,,Overcast,100,2012-10-06 13:36:00
5:56 AM,46.4,46.4,100,30.39,0.5,East,3.5,-,N/A,,Overcast,90,2012-10-06 13:56:00
6:16 AM,48.2,46.4,93,30.39,0.5,East,5.8,-,N/A,,Overcast,100,2012-10-06 14:16:00
6:36 AM,46.4,46.4,100,30.39,0.5,NE,3.5,-,N/A,,Overcast,50,2012-10-06 14:36:00
6:56 AM,46.4,46.4,100,30.39,0.5,East,3.5,-,N/A,,Overcast,90,2012-10-06 14:56:00
7:16 AM,46.4,46.4,100,30.39,0.5,East,4.6,-,N/A,,Overcast,90,2012-10-06 15:16:00
8:16 AM,-9999,-9999,N/A,-9999,-9999.0,North,-9999.0,-,N/A,,Unknown,0,2012-10-06 16:16:00
8:48 AM,46.4,44.6,93,30.40,0.5,Calm,Calm,-,N/A,Fog,Fog,0,2012-10-06 16:48:00
9:36 AM,46.4,46.4,100,30.39,0.5,East,4.6,-,N/A,,Unknown,90,2012-10-06 17:36:00
9:50 AM,46.4,44.6,93,30.40,0.5,ESE,3.5,-,N/A,Fog,Fog,110,2012-10-06 17:50:00
10:50 AM,46.4,44.6,93,30.40,0.5,ESE,4.6,-,N/A,Fog,Fog,120,2012-10-06 18:50:00
11:51 AM,48.2,46.4,93,30.40,0.8,ESE,5.8,-,N/A,,Overcast,120,2012-10-06 19:51:00
12:16 PM,-9999,-9999,N/A,-9999,-9999.0,North,-9999.0,-,N/A,,Unknown,0,2012-10-06 20:16:00
12:22 PM,48.2,46.4,93,30.40,3.0,NE,5.8,-,N/A,,Overcast,50,2012-10-06 20:22:00
12:55 PM,50.0,46.4,87,30.40,7.0,NNE,5.8,-,N/A,Fog,Patches of Fog,30,2012-10-06 20:55:00
1:25 PM,50.0,46.4,87,30.39,7.0,NNE,3.5,-,N/A,Fog,Patches of Fog,30,2012-10-06 21:25:00
1:45 PM,50.0,46.4,87,30.38,7.0,NNE,3.5,-,N/A,Fog,Patches of Fog,30,2012-10-06 21:45:00
2:45 PM,55.4,50.0,82,30.36,10.0,ENE,4.6,-,N/A,Fog,Patches of Fog,70,2012-10-06 22:45:00
3:45 PM,57.2,48.2,72,30.36,7.0,ENE,4.6,-,N/A,Fog,Patches of Fog,70,2012-10-06 23:45:00
4:45 PM,55.4,48.2,77,30.35,10.0,East,3.5,-,N/A,Fog,Patches of Fog,80,2012-10-07 00:45:00
5:28 PM,50.0,46.4,87,30.34,0.5,Calm,Calm,-,N/A,Fog,Fog,0,2012-10-07 01:28:00
5:45 PM,48.2,46.4,93,30.34,0.5,Calm,Calm,-,N/A,Fog,Fog,0,2012-10-07 01:45:00
6:45 PM,44.6,42.8,93,30.34,10.0,Calm,Calm,-,N/A,Fog,Patches of Fog,0,2012-10-07 02:45:00
7:47 PM,44.6,42.8,93,30.33,10.0,Calm,Calm,-,N/A,Fog,Patches of Fog,0,2012-10-07 03:47:00
8:45 PM,44.6,44.6,100,30.33,10.0,Calm,Calm,-,N/A,,Partly Cloudy,0,2012-10-07 04:45:00